Regional Weather Roundup
Issued by NWS Goodland, KS

Home | Current Version | Previous Version | Graphics & Text | Print | Product List | Glossary On
Versions: 1 2 3 4 5 6 7 8 9 10 11 12 13 14 15 16 17 18 19 20 21 22 23 24 25 26 27 28 29 30 31 32 33 34 35 36 37 38 39 40 41 42 43 44 45 46 47 48 49 50
000
ASUS43 KGLD 281359
RWRGLD

GOODLAND FORECAST AREA HOURLY WEATHER ROUNDUP
NATIONAL WEATHER SERVICE GOODLAND KS
700 AM MST WED JAN 28 2015

...OFFICIAL OBSERVATIONS...

CITY           SKY/WX    TMP DP  RH WIND       PRES   REMARKS
GOODLAND KS    CLOUDY    38  29  70 NW10      29.95R
HILL CITY KS   FAIR      35  28  75 W9        29.86R
IMPERIAL NEB   MOCLDY    38  28  67 W8        29.91R
MCCOOK NEB     CLEAR     33  28  81 W8        29.86S
AKRON CO       MOCLDY    39  28  64 W15       29.99R
BURLINGTON CO  CLOUDY    38  29  70 W8        29.98R
LIMON CO       CLOUDY    37  24  59 NW12      30.03R
$$

...UNOFFICIAL OBSERVATIONS...

CITY           SKY/WX    TMP DP  RH WIND       PRES   REMARKS
COLBY KS       CLEAR     41  34  75 NW10      29.92R
GOVE KS          N/A     39  32  76 MISG        N/A
NORTON KS      CLEAR     36  27  69 SW9       29.83R
SHARON SPRINGS   N/A     47  31  53 N12G18      N/A
KIT CARSON CO    N/A     41  28  60 MISG        N/A
YUMA CO          N/A     33  27  80 W8          N/A
$$



USA.gov is the U.S. government's official web portal to all federal, state and local government web resources and services.